Main page
METAR-TAF:

METAR-TAF

Airports :

Oil platform

J6-a, Netherlands

latitude: 53-49-27N, longitude: 2-56-43E, elevation: 34 m

Current weather observation

The report was made 36 minutes ago, at 19:25 UTC
Wind 34 kt from the West/Southwest
Temperature 7°C
Humidity 87%
Pressure 1015 hPa
Visibility 10 km or more

METAR: EHJA 291925Z AUTO 25034KT 9999 NSC 07/05 Q1015

Time: 21:01 (20:01 UTC)


TAF: missing

Weather observations and forecasts of more than 4000 airports (METAR and TAF reports).

The available stations are represented by yellow and red dots on the map.

Hover mouse over dot to see the name of the station.

Then click to see weather observations and forecasts.

To change the map : click on the green buttons with a black cross to zoom in, on the green button with a dash to zoom out, or on the green arrows for adjacent maps.


METAR-TAF: